PLEIADES NEO 4

Last updated on Tue Oct 15 2024 00:02:25 GMT+0000 (Coordinated Universal Time)

1 49070U 21073E 24288.52326676 -.00000214 00000+0 -20548-4 0 9995 2 49070 97.8953 1.0487 0000802 83.7839 276.3465 14.81667190170948
UTC large
Height (km)
Speed (km/s)
/
Latitude / Longitude
Inclination (degrees)
Orbital Period (minutes)
Azimuth
Elevation
Range (km)
Doppler Factor

Next 0 passes for location: London (51.5072 / 0.1276)

Sorry there are no passes over London.